KLM835 EHAM-WSSS

Flight info

Callsign KLM835
Flight time 12h 3m
Altitude 31000
Route ARNEM L620 HMM DCT NOMKA L620 OMELO DCT PEPIK/N0488F330 DCT BUDOP DCT LUGEB DCT UDROS UM859 KARDE UL851 TBN UM11 REBLO M11 MATAL T916 SUBUT T923 ERLEV M11 RODAR/N0486F350 A909 BIBIM B450 MAMED B449 RANAH L750 ZB G202 RK P628 IBANI L510 MABDU/N0494F370 L510 GIVAL P628 VPL Y503 RINBA Y507 MAKNA Y511 TOPOR A464 ARAMA DCT TEBUN
Aircraft B77W/H-SDE2E3FGHIJ3J5P2RWXYZ/LB1D1

Departure

Time 2026-04-30 19:45
Airport Amsterdam Airport Schiphol (EHAM)

Arrival

Time 2026-05-01 07:48
Airport Singapore Changi Airport (WSSS)
Time Latitude Longitude Altitude Speed Heading
2026-04-30 18:27 52.31210 4.76551 4 ft 0 kts 124°
2026-04-30 18:28 52.31205 4.76562 4 ft 0 kts 123°
2026-04-30 18:35 0.01282 0.00001 53808 ft 0 kts
2026-04-30 18:36 52.31210 4.76551 4 ft 0 kts 124°
2026-04-30 18:36 52.31205 4.76562 4 ft 0 kts 123°
2026-04-30 19:31 52.31219 4.76526 3 ft 4 kts 121°
2026-04-30 19:31 52.31233 4.76489 4 ft 4 kts 128°
2026-04-30 19:31 52.31269 4.76453 6 ft 4 kts 211°
2026-04-30 19:32 52.31290 4.76475 6 ft 4 kts 211°
2026-04-30 19:32 52.31312 4.76498 4 ft 4 kts 214°
2026-04-30 19:32 52.31335 4.76523 3 ft 4 kts 214°
2026-04-30 19:32 52.31353 4.76543 5 ft 4 kts 212°
2026-04-30 19:33 52.31376 4.76563 3 ft 4 kts 193°
2026-04-30 19:33 52.31388 4.76566 4 ft 0 kts 178°
2026-04-30 19:33 52.31367 4.76553 4 ft 4 kts 210°
2026-04-30 19:33 52.31347 4.76523 3 ft 4 kts 228°
2026-04-30 19:34 52.31335 4.76486 3 ft 4 kts 251°
2026-04-30 19:34 52.31339 4.76448 4 ft 4 kts 301°
2026-04-30 19:34 52.31369 4.76421 4 ft 0 kts 342°
2026-04-30 19:37 52.31407 4.76402 4 ft 13 kts 342°
2026-04-30 19:37 52.31493 4.76349 4 ft 12 kts 327°
2026-04-30 19:37 52.31533 4.76234 4 ft 12 kts 279°
2026-04-30 19:38 52.31533 4.76099 4 ft 12 kts 267°
2026-04-30 19:38 52.31529 4.75962 4 ft 12 kts 267°
2026-04-30 19:38 52.31524 4.75822 4 ft 14 kts 266°
2026-04-30 19:38 52.31516 4.75588 4 ft 27 kts 266°
2026-04-30 19:39 52.31506 4.75281 3 ft 27 kts 266°
2026-04-30 19:39 52.31496 4.75002 4 ft 22 kts 268°
2026-04-30 19:39 52.31490 4.74778 4 ft 13 kts 267°
2026-04-30 19:39 52.31516 4.74679 4 ft 10 kts 335°
2026-04-30 19:40 52.31548 4.74668 4 ft 0 kts 354°
2026-04-30 19:42 52.31567 4.74665 4 ft 5 kts 354°
2026-04-30 19:42 52.31620 4.74673 4 ft 9 kts 18°
2026-04-30 19:43 52.31660 4.74736 4 ft 7 kts 67°
2026-04-30 19:43 52.31668 4.74809 4 ft 1 kts 87°
2026-04-30 19:44 52.31669 4.74852 3 ft 15 kts 87°
2026-04-30 19:44 52.31685 4.75320 2 ft 78 kts 86°
2026-04-30 19:44 52.31730 4.76613 3 ft 148 kts 86°
2026-04-30 19:45 52.31794 4.78575 98 ft 188 kts 86°
2026-04-30 19:45 52.31886 4.80683 692 ft 189 kts 88°
2026-04-30 19:45 52.31946 4.82795 1536 ft 182 kts 91°
2026-04-30 19:45 52.31998 4.84970 1772 ft 201 kts 91°
2026-04-30 19:46 52.31873 4.87311 1954 ft 214 kts 110°
2026-04-30 19:46 52.31287 4.89603 2377 ft 223 kts 115°
2026-04-30 19:46 52.30657 4.91992 2921 ft 233 kts 115°
2026-04-30 19:46 52.30013 4.94454 3568 ft 238 kts 115°
2026-04-30 19:47 52.29381 4.96986 4215 ft 242 kts 111°
2026-04-30 19:47 52.29050 4.98729 4670 ft 243 kts 108°
2026-04-30 19:47 52.28445 5.02325 5565 ft 247 kts 107°
2026-04-30 19:47 52.27992 5.05037 6257 ft 247 kts 107°
2026-04-30 19:48 52.27533 5.07753 6916 ft 250 kts 107°
2026-04-30 19:48 52.27067 5.10479 7461 ft 254 kts 107°
2026-04-30 19:48 52.26584 5.13274 8035 ft 257 kts 108°
2026-04-30 19:48 52.26094 5.16100 8610 ft 261 kts 108°
2026-04-30 19:49 52.25590 5.18980 9176 ft 265 kts 108°
2026-04-30 19:49 52.24556 5.24860 10335 ft 272 kts 107°
2026-04-30 19:49 52.24183 5.27881 10686 ft 283 kts 98°
2026-04-30 19:50 52.24018 5.31203 10843 ft 303 kts 96°
2026-04-30 19:50 52.23889 5.34762 10997 ft 324 kts 95°
2026-04-30 19:50 52.23741 5.38542 11167 ft 344 kts 96°
2026-04-30 19:50 52.23564 5.42501 11581 ft 355 kts 96°
2026-04-30 19:51 52.23363 5.46560 12174 ft 361 kts 96°
2026-04-30 19:51 52.23153 5.50679 12924 ft 365 kts 96°
2026-04-30 19:51 52.22735 5.54743 13559 ft 365 kts 109°
2026-04-30 19:51 52.21821 5.58594 14177 ft 370 kts 113°
2026-04-30 19:52 52.20816 5.62482 14848 ft 373 kts 113°
2026-04-30 19:52 52.19811 5.66403 15566 ft 376 kts 113°
2026-04-30 19:52 52.18812 5.70360 16244 ft 379 kts 112°
2026-04-30 19:52 52.17815 5.74366 16896 ft 383 kts 112°
2026-04-30 19:53 52.16818 5.78411 17542 ft 387 kts 112°
2026-04-30 19:53 52.15811 5.82508 18194 ft 391 kts 112°
2026-04-30 19:53 52.14795 5.86645 18811 ft 395 kts 112°
2026-04-30 19:53 52.13770 5.90816 19344 ft 399 kts 112°
2026-04-30 19:54 52.12730 5.95040 19905 ft 403 kts 112°
2026-04-30 19:54 52.11678 5.99307 20422 ft 407 kts 112°
2026-04-30 19:54 52.11003 6.02036 20757 ft 410 kts 112°
2026-04-30 19:54 52.09604 6.07775 21458 ft 415 kts 109°
2026-04-30 19:55 52.08904 6.12332 21931 ft 419 kts 100°
2026-04-30 19:55 52.08454 6.17042 22438 ft 423 kts 98°
2026-04-30 19:55 52.08172 6.20249 22785 ft 425 kts 98°
2026-04-30 19:55 52.07751 6.24971 23288 ft 429 kts 99°
2026-04-30 19:56 52.07299 6.29789 23799 ft 432 kts 99°
2026-04-30 19:56 52.06819 6.34637 24237 ft 435 kts 99°
2026-04-30 19:56 52.06321 6.39501 24675 ft 438 kts 99°
2026-04-30 19:56 52.05805 6.44431 25029 ft 443 kts 100°
2026-04-30 19:57 52.05284 6.49365 25369 ft 442 kts 100°
2026-04-30 19:57 52.04766 6.54254 25480 ft 445 kts 100°
2026-04-30 19:57 52.04238 6.59221 25893 ft 448 kts 99°
2026-04-30 19:57 52.03706 6.64218 26310 ft 450 kts 99°
2026-04-30 19:58 52.03169 6.69250 26724 ft 452 kts 99°
2026-04-30 19:58 52.02628 6.74291 27076 ft 456 kts 99°
2026-04-30 19:58 52.01977 6.79361 27453 ft 458 kts 104°
2026-04-30 19:58 52.01173 6.84365 27839 ft 461 kts 104°
2026-04-30 19:59 52.00346 6.89425 28146 ft 465 kts 104°
2026-04-30 19:59 51.99531 6.94458 28471 ft 467 kts 104°
2026-04-30 19:59 51.97913 7.04552 29144 ft 472 kts 104°
2026-04-30 20:00 51.97078 7.09723 29426 ft 474 kts 104°
2026-04-30 20:00 51.96200 7.14906 29740 ft 476 kts 105°
2026-04-30 20:00 51.95265 7.20014 30001 ft 479 kts 106°
2026-04-30 20:00 51.94276 7.25253 30342 ft 479 kts 106°
2026-04-30 20:01 51.92335 7.35498 30984 ft 479 kts 105°
2026-04-30 20:01 51.91363 7.40672 31213 ft 480 kts 105°
2026-04-30 20:01 51.90394 7.45854 31313 ft 483 kts 105°
2026-04-30 20:02 51.87474 7.61418 31369 ft 477 kts 105°
2026-04-30 20:03 51.84816 7.76938 31380 ft 476 kts 101°
2026-04-30 20:03 51.83439 7.87357 31388 ft 477 kts 100°
2026-04-30 20:04 51.82043 7.97880 31387 ft 478 kts 101°
2026-04-30 20:05 51.79924 8.13481 31384 ft 480 kts 101°
2026-04-30 20:05 51.77746 8.29251 31402 ft 480 kts 101°
2026-04-30 20:06 51.76280 8.39774 31393 ft 480 kts 101°
2026-04-30 20:06 51.74804 8.50301 31406 ft 479 kts 101°
2026-04-30 20:07 51.73323 8.60796 31407 ft 479 kts 101°
2026-04-30 20:08 51.71087 8.76498 31420 ft 478 kts 101°
2026-04-30 20:08 51.69603 8.86881 31394 ft 477 kts 101°
2026-04-30 20:09 51.68115 8.97284 31404 ft 476 kts 101°
2026-04-30 20:09 51.65894 9.12701 31414 ft 475 kts 101°
2026-04-30 20:10 51.63633 9.28227 31434 ft 475 kts 101°
2026-04-30 20:11 51.61350 9.43738 31429 ft 476 kts 101°
2026-04-30 20:11 51.59810 9.54119 31426 ft 477 kts 101°
2026-04-30 20:12 51.57490 9.69629 31452 ft 477 kts 101°
2026-04-30 20:13 51.55923 9.80016 31432 ft 477 kts 101°
2026-04-30 20:13 51.54350 9.90375 31427 ft 476 kts 101°
2026-04-30 20:14 51.52795 10.00553 31426 ft 475 kts 101°
2026-04-30 20:14 51.51209 10.10867 31437 ft 475 kts 101°
2026-04-30 20:15 51.49630 10.21076 31439 ft 474 kts 101°
2026-04-30 20:15 51.48025 10.31382 31434 ft 474 kts 101°
2026-04-30 20:16 51.46416 10.41649 31433 ft 474 kts 101°
2026-04-30 20:16 51.44808 10.51843 31439 ft 474 kts 101°
2026-04-30 20:17 51.43180 10.62097 31458 ft 474 kts 101°
2026-04-30 20:17 51.41555 10.72279 31443 ft 473 kts 101°
2026-04-30 20:18 51.39914 10.82491 31423 ft 472 kts 101°
2026-04-30 20:18 51.38272 10.92655 31435 ft 471 kts 101°
2026-04-30 20:19 51.36653 11.02613 31439 ft 471 kts 101°
2026-04-30 20:19 51.34994 11.12753 31446 ft 471 kts 101°
2026-04-30 20:20 51.33326 11.22890 31434 ft 470 kts 101°
2026-04-30 20:20 51.31652 11.33006 31436 ft 470 kts 101°
2026-04-30 20:21 51.29978 11.43060 31426 ft 470 kts 101°
2026-04-30 20:21 51.28289 11.53140 31454 ft 470 kts 101°
2026-04-30 20:22 51.26587 11.63244 31440 ft 470 kts 101°
2026-04-30 20:22 51.24887 11.73276 31429 ft 469 kts 101°
2026-04-30 20:23 51.23170 11.83352 31429 ft 469 kts 101°
2026-04-30 20:23 51.21447 11.93401 31427 ft 469 kts 101°
2026-04-30 20:24 51.19753 12.03225 31435 ft 469 kts 100°
2026-04-30 20:24 51.18018 12.13235 31431 ft 468 kts 100°
2026-04-30 20:25 51.15412 12.28155 31427 ft 466 kts 101°
2026-04-30 20:26 51.12790 12.43046 31462 ft 464 kts 100°
2026-04-30 20:26 51.10166 12.57832 31428 ft 463 kts 100°
2026-04-30 20:27 51.06641 12.77497 31435 ft 462 kts 100°
2026-04-30 20:28 51.03091 12.97095 31439 ft 462 kts 100°
2026-04-30 20:30 50.98635 13.21390 31430 ft 461 kts 100°
2026-04-30 20:31 50.93206 13.50577 31431 ft 459 kts 100°
2026-04-30 20:32 50.88645 13.74747 31435 ft 458 kts 100°
2026-04-30 20:33 50.85882 13.89252 31433 ft 458 kts 100°
2026-04-30 20:34 50.81777 14.02888 31440 ft 477 kts 119°
2026-04-30 20:35 50.74846 14.14551 31434 ft 487 kts 128°
2026-04-30 20:35 50.67610 14.25772 31443 ft 487 kts 127°
2026-04-30 20:36 50.62803 14.33310 31421 ft 485 kts 127°
2026-04-30 20:37 50.55650 14.44549 31443 ft 484 kts 127°
2026-04-30 20:37 50.50906 14.51978 31445 ft 483 kts 127°
2026-04-30 20:38 50.46131 14.59430 31436 ft 483 kts 127°
2026-04-30 20:38 50.41347 14.66869 31428 ft 483 kts 127°
2026-04-30 20:39 50.34207 14.77927 31414 ft 482 kts 127°
2026-04-30 20:40 50.27033 14.88993 31451 ft 481 kts 127°
2026-04-30 20:40 50.22282 14.96295 31424 ft 481 kts 127°
2026-04-30 20:41 50.15196 15.07143 31411 ft 481 kts 127°
2026-04-30 20:41 50.10437 15.14402 31413 ft 480 kts 127°
2026-04-30 20:42 50.06454 15.20462 31411 ft 481 kts 127°
2026-04-30 20:43 49.99269 15.31356 31413 ft 481 kts 127°
2026-04-30 20:43 49.94501 15.38558 31405 ft 481 kts 127°
2026-04-30 20:44 49.87299 15.49396 31418 ft 480 kts 127°
2026-04-30 20:45 49.77714 15.63749 31408 ft 480 kts 126°
2026-04-30 20:45 49.72907 15.70915 31403 ft 479 kts 126°
2026-04-30 20:46 49.63331 15.85128 31410 ft 477 kts 126°
2026-04-30 20:47 49.56144 15.95745 31429 ft 478 kts 126°
2026-04-30 20:48 49.49015 16.06228 31426 ft 477 kts 126°
2026-04-30 20:48 49.44213 16.13265 31418 ft 476 kts 126°
2026-04-30 20:49 49.39440 16.20241 31412 ft 476 kts 126°
2026-04-30 20:50 49.32230 16.30740 31411 ft 476 kts 126°
2026-04-30 20:50 49.27416 16.37725 31413 ft 475 kts 126°
2026-04-30 20:51 49.22632 16.44647 31423 ft 475 kts 126°
2026-04-30 20:51 49.15444 16.55012 31404 ft 475 kts 126°
2026-04-30 20:52 49.10604 16.61969 31407 ft 476 kts 126°
2026-04-30 20:53 49.03380 16.72310 31402 ft 475 kts 126°
2026-04-30 20:53 48.98566 16.79181 31406 ft 475 kts 127°
2026-04-30 20:54 48.91338 16.89460 31454 ft 475 kts 127°
2026-04-30 20:55 48.84074 16.99753 31404 ft 478 kts 128°
2026-04-30 20:55 48.79358 17.06574 31397 ft 473 kts 123°
2026-04-30 20:56 48.73611 17.18466 31773 ft 463 kts 114°
2026-04-30 20:56 48.70099 17.26557 32356 ft 462 kts 115°
2026-04-30 20:57 48.68329 17.30598 32640 ft 462 kts 115°
2026-04-30 20:57 48.66545 17.34654 32901 ft 463 kts 115°
2026-04-30 20:57 48.64751 17.38724 33116 ft 464 kts 115°
2026-04-30 20:58 48.61146 17.46877 33334 ft 468 kts 115°
2026-04-30 20:58 48.59327 17.50979 33387 ft 467 kts 115°
2026-04-30 20:58 48.55712 17.59105 33425 ft 466 kts 116°
2026-04-30 20:59 48.50297 17.71237 33395 ft 466 kts 116°
2026-04-30 21:00 48.43030 17.87446 33386 ft 467 kts 116°
2026-04-30 21:01 48.37547 17.99612 33386 ft 470 kts 117°
2026-04-30 21:02 48.32096 18.11651 33370 ft 472 kts 117°
2026-04-30 21:02 48.28393 18.19797 33369 ft 472 kts 117°
2026-04-30 21:03 48.24675 18.27950 33376 ft 473 kts 117°
2026-04-30 21:03 48.20973 18.36048 33380 ft 474 kts 118°
2026-04-30 21:04 48.17228 18.44214 33356 ft 475 kts 118°
2026-04-30 21:04 48.11583 18.56475 33358 ft 475 kts 118°
2026-04-30 21:05 48.07846 18.64562 33379 ft 476 kts 118°
2026-04-30 21:05 48.04072 18.72704 33371 ft 476 kts 118°
2026-04-30 21:06 48.00289 18.80845 33367 ft 477 kts 118°
2026-04-30 21:06 47.96498 18.88976 33373 ft 477 kts 119°
2026-04-30 21:07 47.92689 18.97123 33392 ft 478 kts 120°
2026-04-30 21:07 47.88949 19.05096 33371 ft 479 kts 120°
2026-04-30 21:08 47.85116 19.13243 33368 ft 480 kts 120°
2026-04-30 21:08 47.81294 19.21346 33372 ft 481 kts 120°
2026-04-30 21:09 47.77435 19.29500 33365 ft 481 kts 120°
2026-04-30 21:09 47.73574 19.37635 33373 ft 482 kts 121°
2026-04-30 21:10 47.69722 19.45728 33358 ft 482 kts 121°
2026-04-30 21:10 47.65844 19.53852 33374 ft 482 kts 121°
2026-04-30 21:11 47.61960 19.61962 33367 ft 482 kts 121°
2026-04-30 21:11 47.58061 19.70080 33360 ft 482 kts 121°
2026-04-30 21:12 47.54182 19.78135 33364 ft 483 kts 121°
2026-04-30 21:12 47.50270 19.86231 33358 ft 483 kts 122°
2026-04-30 21:13 47.46344 19.94335 33358 ft 484 kts 122°
2026-04-30 21:13 47.42500 20.02245 33364 ft 485 kts 122°
2026-04-30 21:14 47.38551 20.10349 33358 ft 485 kts 122°
2026-04-30 21:14 47.34611 20.18410 33352 ft 486 kts 122°
2026-04-30 21:15 47.30644 20.26502 33352 ft 486 kts 122°
2026-04-30 21:15 47.26690 20.34543 33356 ft 487 kts 122°
2026-04-30 21:16 47.22705 20.42625 33348 ft 487 kts 123°
2026-04-30 21:16 47.18716 20.50692 33350 ft 488 kts 123°
2026-04-30 21:17 47.14713 20.58762 33350 ft 488 kts 123°
2026-04-30 21:17 47.10729 20.66770 33350 ft 488 kts 123°
2026-04-30 21:18 47.06725 20.74798 33350 ft 488 kts 123°
2026-04-30 21:18 47.02712 20.82817 33350 ft 488 kts 123°
2026-04-30 21:19 46.98724 20.90766 33351 ft 488 kts 123°
2026-04-30 21:19 46.94695 20.98773 33346 ft 488 kts 123°
2026-04-30 21:20 46.90713 21.06664 33343 ft 488 kts 123°
2026-04-30 21:20 46.86660 21.14673 33338 ft 489 kts 123°
2026-04-30 21:21 46.82632 21.22610 33342 ft 489 kts 123°
2026-04-30 21:22 46.76531 21.34589 33339 ft 490 kts 124°
2026-04-30 21:23 46.68436 21.50643 33341 ft 489 kts 119°
2026-04-30 21:23 46.63563 21.63619 33333 ft 488 kts 115°
2026-04-30 21:24 46.60352 21.72350 33330 ft 489 kts 115°
2026-04-30 21:24 46.57109 21.81062 33329 ft 490 kts 116°
2026-04-30 21:25 46.52221 21.94072 33336 ft 491 kts 116°
2026-04-30 21:26 46.47320 22.07050 33326 ft 492 kts 116°
2026-04-30 21:27 46.42579 22.19547 33333 ft 493 kts 116°
2026-04-30 21:27 46.39258 22.28271 33344 ft 495 kts 116°
2026-04-30 21:28 46.34262 22.41340 33352 ft 496 kts 116°
2026-04-30 21:29 46.29238 22.54418 33350 ft 497 kts 116°
2026-04-30 21:30 46.20793 22.76263 33374 ft 498 kts 117°
2026-04-30 21:31 46.12310 22.98034 33370 ft 499 kts 117°
2026-04-30 21:32 46.07252 23.10929 33367 ft 500 kts 117°
2026-04-30 21:32 46.03813 23.19666 33364 ft 500 kts 117°
2026-04-30 21:33 45.98663 23.32697 33361 ft 502 kts 118°
2026-04-30 21:34 45.95193 23.41440 33363 ft 503 kts 118°
2026-04-30 21:34 45.89958 23.54579 33361 ft 505 kts 118°
2026-04-30 21:35 45.86476 23.63283 33359 ft 506 kts 118°
2026-04-30 21:35 45.82956 23.72059 33348 ft 507 kts 118°
2026-04-30 21:36 45.79430 23.80816 33335 ft 507 kts 118°
2026-04-30 21:37 45.72373 23.98263 33320 ft 506 kts 118°
2026-04-30 21:37 45.68897 24.06820 33359 ft 506 kts 118°
2026-04-30 21:38 45.65356 24.15508 33382 ft 505 kts 119°
2026-04-30 21:38 45.61806 24.24190 33377 ft 506 kts 119°
2026-04-30 21:39 45.58237 24.32890 33373 ft 506 kts 119°
2026-04-30 21:39 45.54667 24.41567 33347 ft 507 kts 119°
2026-04-30 21:40 45.51105 24.50201 33368 ft 508 kts 120°
2026-04-30 21:40 45.47505 24.58896 33368 ft 511 kts 120°
2026-04-30 21:41 45.43882 24.67619 33371 ft 513 kts 120°
2026-04-30 21:41 45.40234 24.76376 33364 ft 514 kts 120°
2026-04-30 21:42 45.36596 24.85083 33376 ft 515 kts 120°
2026-04-30 21:42 45.32926 24.93835 33359 ft 515 kts 120°
2026-04-30 21:43 45.29925 25.00975 33373 ft 515 kts 120°
2026-04-30 21:43 45.25642 25.11133 33371 ft 515 kts 121°
2026-04-30 21:44 45.21955 25.19847 33366 ft 514 kts 121°
2026-04-30 21:44 45.18256 25.28563 33361 ft 514 kts 121°
2026-04-30 21:45 45.15189 25.35768 33365 ft 514 kts 121°
2026-04-30 21:45 45.11495 25.44426 33361 ft 514 kts 122°
2026-04-30 21:46 45.07791 25.53076 33353 ft 514 kts 122°
2026-04-30 21:46 45.04099 25.61673 33361 ft 513 kts 122°
2026-04-30 21:47 45.00382 25.70305 33350 ft 514 kts 122°
2026-04-30 21:47 44.96663 25.78912 33348 ft 515 kts 122°
2026-04-30 21:48 44.92918 25.87554 33339 ft 516 kts 123°
2026-04-30 21:48 44.89185 25.96141 33336 ft 517 kts 123°
2026-04-30 21:49 44.85484 26.04633 33340 ft 518 kts 123°
2026-04-30 21:49 44.81699 26.13287 33338 ft 519 kts 123°
2026-04-30 21:50 44.77901 26.21946 33337 ft 520 kts 123°
2026-04-30 21:50 44.74091 26.30606 33315 ft 520 kts 124°
2026-04-30 21:51 44.70305 26.39187 33319 ft 520 kts 124°
2026-04-30 21:51 44.66488 26.47810 33316 ft 520 kts 124°
2026-04-30 21:52 44.62662 26.56428 33317 ft 519 kts 124°
2026-04-30 21:52 44.58838 26.65020 33291 ft 519 kts 125°
2026-04-30 21:53 44.55008 26.73594 33310 ft 518 kts 125°
2026-04-30 21:53 44.51174 26.82152 33314 ft 518 kts 125°
2026-04-30 21:54 44.47336 26.90693 33314 ft 518 kts 125°
2026-04-30 21:54 44.43485 26.99238 33306 ft 519 kts 125°
2026-04-30 21:55 44.39707 27.07599 33310 ft 519 kts 125°
2026-04-30 21:55 44.35843 27.16124 33290 ft 519 kts 126°
2026-04-30 21:56 44.31968 27.24647 33309 ft 519 kts 126°
2026-04-30 21:56 44.28092 27.33148 33298 ft 519 kts 126°
2026-04-30 21:57 44.24233 27.41585 33304 ft 519 kts 126°
2026-04-30 21:57 44.20339 27.50076 33300 ft 519 kts 127°
2026-04-30 21:58 44.16430 27.58573 33303 ft 519 kts 127°
2026-04-30 21:58 44.12549 27.66986 33302 ft 519 kts 127°
2026-04-30 21:59 44.08628 27.75462 33283 ft 519 kts 128°
2026-04-30 22:00 44.02761 27.88093 33296 ft 519 kts 128°
2026-04-30 22:00 43.96931 28.00593 33285 ft 520 kts 128°
2026-04-30 22:01 43.92988 28.09019 33286 ft 520 kts 129°
2026-04-30 22:01 43.89050 28.17408 33279 ft 521 kts 129°
2026-04-30 22:02 43.85210 28.25565 33279 ft 522 kts 129°
2026-04-30 22:02 43.81209 28.34041 33256 ft 522 kts 129°
2026-04-30 22:03 43.77206 28.42499 33258 ft 524 kts 129°
2026-04-30 22:03 43.73227 28.50884 33253 ft 525 kts 129°
2026-04-30 22:04 43.69270 28.59402 33233 ft 526 kts 128°
2026-04-30 22:05 43.63376 28.72251 33265 ft 527 kts 128°
2026-04-30 22:05 43.59455 28.80736 33250 ft 528 kts 129°
2026-04-30 22:06 43.55496 28.89259 33226 ft 528 kts 129°
2026-04-30 22:06 43.49624 29.01847 33225 ft 527 kts 129°
2026-04-30 22:07 43.45649 29.10339 33232 ft 527 kts 129°
2026-04-30 22:07 43.41673 29.18814 33214 ft 526 kts 129°
2026-04-30 22:08 43.37726 29.27198 33213 ft 525 kts 129°
2026-04-30 22:08 43.33750 29.35619 33217 ft 525 kts 129°
2026-04-30 22:09 43.29768 29.44030 33218 ft 525 kts 130°
2026-04-30 22:09 43.25775 29.52439 33204 ft 526 kts 130°
2026-04-30 22:10 43.21764 29.60862 33195 ft 527 kts 130°
2026-04-30 22:10 43.17775 29.69217 33197 ft 527 kts 130°
2026-04-30 22:11 43.11731 29.81832 33191 ft 527 kts 130°
2026-04-30 22:12 43.07701 29.90215 33180 ft 527 kts 130°
2026-04-30 22:12 43.03661 29.98593 33174 ft 527 kts 130°
2026-04-30 22:13 42.99733 30.06713 33174 ft 527 kts 130°
2026-04-30 22:13 42.95682 30.15068 33171 ft 528 kts 130°
2026-04-30 22:14 42.91621 30.23420 33160 ft 528 kts 130°
2026-04-30 22:14 42.87554 30.31761 33162 ft 528 kts 131°
2026-04-30 22:15 42.83475 30.40103 33155 ft 529 kts 131°
2026-04-30 22:15 42.79384 30.48451 33147 ft 528 kts 131°
2026-04-30 22:16 42.75549 30.56932 33128 ft 536 kts 121°
2026-04-30 22:17 42.72002 30.76880 33121 ft 549 kts 100°
2026-04-30 22:17 42.70571 30.92335 33128 ft 547 kts 101°
2026-04-30 22:18 42.69023 31.07461 33121 ft 545 kts 102°
2026-04-30 22:19 42.67416 31.22700 33101 ft 543 kts 102°
2026-04-30 22:20 42.65796 31.37966 33116 ft 543 kts 102°
2026-04-30 22:20 42.64159 31.53211 33109 ft 543 kts 102°
2026-04-30 22:21 42.63063 31.63300 33097 ft 544 kts 102°
2026-04-30 22:21 42.61950 31.73472 33088 ft 543 kts 102°
2026-04-30 22:22 42.60833 31.83584 33050 ft 543 kts 102°
2026-04-30 22:22 42.59710 31.93688 33074 ft 541 kts 102°
2026-04-30 22:23 42.58600 32.03533 33075 ft 539 kts 103°
2026-04-30 22:23 42.57366 32.13565 33070 ft 538 kts 102°
2026-04-30 22:24 42.56228 32.23589 33064 ft 537 kts 102°
2026-04-30 22:24 42.55098 32.33592 33062 ft 536 kts 102°
2026-04-30 22:25 42.53945 32.43576 33073 ft 536 kts 102°
2026-04-30 22:25 42.52772 32.53576 33064 ft 537 kts 102°
2026-04-30 22:26 42.51005 32.68502 33054 ft 537 kts 102°
2026-04-30 22:27 42.49813 32.78487 33046 ft 537 kts 102°
2026-04-30 22:27 42.48011 32.93446 33046 ft 536 kts 103°
2026-04-30 22:28 42.46224 33.08122 33038 ft 536 kts 103°
2026-04-30 22:29 42.43785 33.28031 33006 ft 535 kts 103°
2026-04-30 22:31 42.39456 33.62602 33033 ft 535 kts 103°
2026-04-30 22:32 42.36247 33.87427 33031 ft 535 kts 103°
2026-04-30 22:33 42.33254 34.10277 33033 ft 533 kts 103°
2026-04-30 22:35 42.30001 34.34818 33011 ft 530 kts 103°
2026-04-30 22:36 42.26653 34.59341 33029 ft 531 kts 103°
2026-04-30 22:37 42.23937 34.78921 33022 ft 533 kts 103°
2026-04-30 22:38 42.21183 34.98609 33028 ft 533 kts 103°
2026-04-30 22:39 42.19134 35.13125 33026 ft 532 kts 103°
2026-04-30 22:40 42.14933 35.42461 33016 ft 530 kts 103°
2026-04-30 22:41 42.11407 35.66760 33037 ft 529 kts 103°
2026-04-30 22:43 42.07120 35.95840 33039 ft 529 kts 104°
2026-04-30 22:44 42.04237 36.15098 33037 ft 528 kts 104°
2026-04-30 22:45 41.99838 36.44049 33049 ft 527 kts 104°
2026-04-30 22:47 41.95357 36.73020 33053 ft 529 kts 104°
2026-04-30 22:48 41.92326 36.92343 33055 ft 529 kts 104°
2026-04-30 22:49 41.90092 37.21550 33042 ft 530 kts 92°
2026-04-30 22:51 41.89682 37.51160 33056 ft 529 kts 93°
2026-04-30 22:52 41.89409 37.65984 33049 ft 529 kts 93°
2026-04-30 22:53 41.89025 37.85671 33052 ft 528 kts 93°
2026-04-30 22:53 41.88717 38.00326 33053 ft 529 kts 93°
2026-04-30 22:55 41.88158 38.24936 33054 ft 529 kts 93°
2026-04-30 22:56 41.87671 38.44678 33038 ft 528 kts 93°
2026-04-30 22:57 41.87018 38.69244 33054 ft 526 kts 93°
2026-04-30 22:58 41.86460 38.88824 33049 ft 525 kts 94°
2026-04-30 22:59 41.85565 39.18032 33058 ft 525 kts 94°
2026-05-01 07:23 1.19791 103.90217 28373 ft 486 kts 117°
2026-05-01 07:24 1.15031 103.99137 28361 ft 486 kts 117°
2026-05-01 07:24 1.12420 104.04033 27694 ft 488 kts 117°
2026-05-01 07:24 1.10826 104.07019 27101 ft 483 kts 117°
2026-05-01 07:25 1.09258 104.09957 26504 ft 476 kts 117°
2026-05-01 07:25 1.07710 104.12855 25932 ft 469 kts 117°
2026-05-01 07:25 1.06183 104.15712 25349 ft 463 kts 117°
2026-05-01 07:25 1.04674 104.18535 24788 ft 457 kts 117°
2026-05-01 07:26 1.03204 104.21281 24229 ft 451 kts 117°
2026-05-01 07:26 1.01731 104.24033 23699 ft 446 kts 117°
2026-05-01 07:26 1.00217 104.26709 23101 ft 440 kts 122°
2026-05-01 07:26 0.98330 104.29108 22459 ft 438 kts 132°
2026-05-01 07:27 0.96060 104.31136 21828 ft 436 kts 142°
2026-05-01 07:27 0.93563 104.32765 21236 ft 433 kts 147°
2026-05-01 07:27 0.90951 104.34243 20663 ft 430 kts 149°
2026-05-01 07:27 0.88328 104.35656 20063 ft 426 kts 150°
2026-05-01 07:28 0.85710 104.37043 19482 ft 422 kts 151°
2026-05-01 07:28 0.82999 104.38162 18923 ft 422 kts 161°
2026-05-01 07:28 0.80143 104.38744 18737 ft 413 kts 172°
2026-05-01 07:28 0.77264 104.38626 18289 ft 419 kts 192°
2026-05-01 07:29 0.74585 104.37514 17912 ft 429 kts 210°
2026-05-01 07:29 0.72269 104.35603 17540 ft 437 kts 227°
2026-05-01 07:29 0.70551 104.33087 17301 ft 440 kts 243°
2026-05-01 07:29 0.69605 104.30173 17047 ft 440 kts 261°
2026-05-01 07:30 0.69581 104.27125 16793 ft 438 kts 280°
2026-05-01 07:30 0.70496 104.24284 16547 ft 434 kts 298°
2026-05-01 07:30 0.72177 104.21810 16309 ft 429 kts 315°
2026-05-01 07:30 0.74381 104.19857 16078 ft 421 kts 322°
2026-05-01 07:31 0.76664 104.17996 15841 ft 421 kts 323°
2026-05-01 07:31 0.83391 104.12464 14703 ft 415 kts 322°
2026-05-01 07:32 0.87676 104.08860 14556 ft 394 kts 321°
2026-05-01 07:32 0.89767 104.07098 14512 ft 384 kts 321°
2026-05-01 07:33 0.93520 104.03932 14173 ft 327 kts 322°
2026-05-01 07:33 0.95214 104.02505 14038 ft 314 kts 322°
2026-05-01 07:33 0.98641 103.99801 14001 ft 309 kts 337°
2026-05-01 07:34 1.00683 103.99283 13986 ft 298 kts
2026-05-01 07:34 1.04287 104.00539 13622 ft 269 kts 40°
2026-05-01 07:34 1.05584 104.01850 13284 ft 263 kts 54°
2026-05-01 07:35 1.06654 104.03323 12934 ft 262 kts 57°
2026-05-01 07:35 1.07704 104.04844 12718 ft 267 kts 57°
2026-05-01 07:35 1.08762 104.06364 12739 ft 266 kts 57°
2026-05-01 07:35 1.09840 104.07887 12397 ft 271 kts 56°
2026-05-01 07:36 1.10948 104.09434 11924 ft 276 kts 56°
2026-05-01 07:36 1.12057 104.10975 11494 ft 268 kts 56°
2026-05-01 07:36 1.13132 104.12456 11132 ft 259 kts 53°
2026-05-01 07:36 1.14481 104.13608 10731 ft 256 kts 27°
2026-05-01 07:37 1.17762 104.14997 10100 ft 262 kts 25°
2026-05-01 07:37 1.19452 104.15713 9770 ft 266 kts 25°
2026-05-01 07:37 1.21163 104.16438 9403 ft 267 kts 25°
2026-05-01 07:38 1.22883 104.17168 9027 ft 268 kts 25°
2026-05-01 07:38 1.24605 104.17901 8662 ft 269 kts 25°
2026-05-01 07:38 1.27958 104.19328 7885 ft 255 kts 25°
2026-05-01 07:39 1.29568 104.20013 7518 ft 247 kts 25°
2026-05-01 07:39 1.31134 104.20680 7144 ft 242 kts 25°
2026-05-01 07:39 1.34413 104.21038 6605 ft 249 kts 348°
2026-05-01 07:40 1.36124 104.20655 6396 ft 254 kts 349°
2026-05-01 07:40 1.37862 104.20275 6169 ft 255 kts 349°
2026-05-01 07:40 1.39564 104.19904 5917 ft 252 kts 349°
2026-05-01 07:40 1.41272 104.19533 5660 ft 249 kts 349°
2026-05-01 07:41 1.42954 104.19169 5424 ft 244 kts 349°
2026-05-01 07:41 1.44590 104.18817 5260 ft 237 kts 349°
2026-05-01 07:41 1.47767 104.18134 4760 ft 229 kts 349°
2026-05-01 07:42 1.49294 104.17807 4495 ft 226 kts 349°
2026-05-01 07:42 1.50809 104.17437 4227 ft 220 kts 338°
2026-05-01 07:42 1.51962 104.16492 3937 ft 215 kts 301°
2026-05-01 07:42 1.52429 104.15106 3694 ft 209 kts 278°
2026-05-01 07:43 1.52546 104.13662 3487 ft 209 kts 273°
2026-05-01 07:43 1.52624 104.12226 3266 ft 209 kts 273°
2026-05-01 07:43 1.52790 104.09327 2782 ft 208 kts 274°
2026-05-01 07:44 1.52913 104.06484 2265 ft 199 kts 261°
2026-05-01 07:44 1.51150 104.04576 1994 ft 189 kts 201°
2026-05-01 07:45 1.49949 104.04082 1988 ft 186 kts 201°
2026-05-01 07:45 1.48757 104.03582 2017 ft 184 kts 201°
2026-05-01 07:45 1.47572 104.03085 1996 ft 185 kts 201°
2026-05-01 07:45 1.46418 104.02602 1919 ft 187 kts 202°
2026-05-01 07:46 1.45258 104.02114 1652 ft 184 kts 201°
2026-05-01 07:46 1.44116 104.01633 1410 ft 172 kts 201°
2026-05-01 07:46 1.42018 104.00749 982 ft 149 kts 201°
2026-05-01 07:47 1.41067 104.00348 802 ft 146 kts 202°
2026-05-01 07:47 1.40147 103.99961 719 ft 146 kts 201°
2026-05-01 07:47 1.39229 103.99561 444 ft 141 kts 202°
2026-05-01 07:47 1.38342 103.99193 205 ft 134 kts 202°
2026-05-01 07:48 1.36612 103.98466 36 ft 124 kts 203°
2026-05-01 07:48 1.35983 103.98204 35 ft 71 kts 203°
2026-05-01 07:48 1.35706 103.98109 35 ft 14 kts 184°
2026-05-01 07:49 1.35595 103.98113 35 ft 18 kts 171°
2026-05-01 07:49 1.35544 103.98213 34 ft 8 kts 37°
2026-05-01 07:49 1.35595 103.98236 35 ft 9 kts 22°
2026-05-01 07:50 1.35651 103.98259 35 ft 9 kts 22°
2026-05-01 07:50 1.35785 103.98313 35 ft 11 kts 21°
2026-05-01 07:50 1.35859 103.98344 35 ft 12 kts 23°
2026-05-01 07:51 1.35937 103.98377 35 ft 13 kts 23°
2026-05-01 07:51 1.36021 103.98413 35 ft 14 kts 22°
2026-05-01 07:51 1.36120 103.98454 35 ft 17 kts 22°
2026-05-01 07:52 1.36347 103.98551 35 ft 10 kts 23°
2026-05-01 07:52 1.36411 103.98579 35 ft 10 kts 28°
2026-05-01 07:52 1.36435 103.98614 35 ft 4 kts 84°
2026-05-01 07:53 1.36405 103.98682 35 ft 8 kts 114°
2026-05-01 07:53 1.36385 103.98734 35 ft 8 kts 99°
2026-05-01 07:53 1.36410 103.98783 35 ft 8 kts 32°
2026-05-01 07:53 1.36447 103.98818 35 ft 6 kts 77°
2026-05-01 07:54 1.36429 103.98864 35 ft 3 kts 115°
2026-05-01 07:55 1.36419 103.98887 35 ft 0 kts 114°